Location: Cedar Brake
(32.2526°N, 97.8459°W)
Time: 18:06:27
(UTC+00:00)

Cosmos 1408 Rocket - Pass Details

Date: 22 April 2026
Orbit: 593 x 624 km, 82.6° (Epoch: 9 May)

Event Time Altitude Azimuth Distance (km) Brightness Sun altitude
Rises 11:18:40 0° 342° (NNW) 2,838 7.0 -8.0°
Reaches altitude 10° 11:21:02 10° 333° (NNW) 1,930 6.0 -7.5°
Maximum altitude 11:24:51 33° 269° (W) 999 4.2 -6.8°
Drops below altitude 10° 11:28:40 10° 205° (SSW) 1,916 5.7 -6.0°
Sets 11:31:00 0° 195° (SSW) 2,814 6.6 -5.5°
